Location: Bukit Nyuki
(2.5885°N, 113.7476°E)
Time: 13:40:01
(UTC+00:00)

Spelda - Pass Details

Date: 18 May 2021
Orbit: 288 x 24493 km, 3.8° (Epoch: 15 June)

Event Time Altitude Azimuth Distance (km) Brightness Sun altitude
Exits shadow 20:26:53 49° 147° (SSE) 844 4.7 -25.8°
Drops below altitude 10° 20:34:39 10° 93° (E) 4,367 9.2 -24.0°
Sets 20:42:55 0° 89° (E) 7,915 10.9 -22.1°
